Китой

Россия / Иркутская область     52°31′39″N   103°48′04″E
темп.,
°C
ветер,
м/с
пор.,
м/с
влажн.,
%
обл.,
%
осадки,
мм/ч
давл.,
гПа
погр.,
м
7 мая, пт
пт723:00+6зсз41296100 4.7 1011907
02:00+5ссз51192100 9.8 1012955
05:00+3зсз4993100 2.3 1014820
08:00+2зсз4894100 4.3 1016620
11:00+4сз4579100 0.8 1016981
14:00+6зсз2365100 0.9 10151285
17:00+7зюз2262100 0.0 1014822
20:00+6ююз117591 0.0 101412
8 мая, сб
сб823:00+3юв228682 0.0 101429
02:00+1вюв389236 0.0 1012166
05:00+1в2386100 0.0 101263
08:00+3зсз2288100 0.9 1015201
11:00+3юз2397100 0.8 1016255
14:00+10с366685 0.8 10131182
17:00+12сз255997 0.3 10121208
20:00+8з378399 0.6 1014186
9 мая, вс
вс923:00+7з4990100 0.3 1015283
02:00+6зюз4992100 1.3 1015296
05:00+4юз229377 0.0 101428
08:00+8ююв238299 0.0 1012228
11:00+13ююв3457100 0.0 1010994
14:00+18юз1340100 0.0 10071556
17:00+16юв3450100 0.0 1004768
20:00+9ссз61093100 9.0 1007583
10 мая, пн
пн1023:00+5сз71394100 2.9 10121026
02:00+4сз71288100 5.5 10141014
05:00+3зсз51285100 0.0 1015845
08:00+5сз5107655 0.0 10161095
11:00+4зсз4993100 0.6 1016778
14:00+6сз6972100 1.1 10171341
17:00+7зсз586987 0.3 10161400
20:00+6зсз487364 0.4 1017410
11 мая, вт
вт1123:00+3зсз38945 0.1 1018251
02:00+2з27945 0.0 1017169
05:00+3зюз0082100 0.0 101511
08:00+5ююз1171100 0.0 1014311
11:00+9в215487 0.0 10121071
14:00+12всв114586 0.0 10101375
17:00+13с1241100 0.0 10091559
20:00+10ссз3658100 0.0 1010188